When you browse on this site, cookies collect data to enhance your experience and personalize the content and advertising you see.
Visit our Privacy Policy to learn more. By continuing to use the site, you agree to this use of cookies and data.
  • In Sweden
  • List of Countries
  • For 7 days
  • Water Temperature
  • Weather Map
  • Weather Widgets
  • user-avatar
    Login

    Hourly Weather Dolina

    Today, 3 June, Wednesday

    Time Temperature Precipitation Wind Pressure Humidity
    00:00 +7°C° 0.4 mm 4 mps 714 mmHg 100%
    01:00 +8°C° 0.4 mm 3 mps 714 mmHg 100%
    02:00 +8°C° 0.5 mm 3 mps 714 mmHg 100%
    03:00 +8°C° 0.9 mm 3 mps 713 mmHg 100%
    04:00 +8°C° 1.5 mm 2 mps 713 mmHg 100%
    05:00 +8°C° 0.8 mm 3 mps 713 mmHg 100%
    06:00 +7°C° 1.7 mm 4 mps 713 mmHg 100%
    07:00 +8°C° 1.4 mm 3 mps 713 mmHg 100%
    08:00 +8°C° 0.3 mm 4 mps 713 mmHg 100%
    09:00 +8°C° 0 mm 4 mps 714 mmHg 95%
    10:00 +10°C° 0.4 mm 3 mps 714 mmHg 99%
    11:00 +10°C° 0.8 mm 4 mps 713 mmHg 98%
    12:00 +13°C° 0.1 mm 3 mps 713 mmHg 89%
    13:00 +14°C° 0 mm 4 mps 713 mmHg 88%
    14:00 +11°C° 0.8 mm 4 mps 713 mmHg 92%
    15:00 +14°C° 0 mm 3 mps 713 mmHg 90%
    16:00 +13°C° 0.3 mm 3 mps 712 mmHg 95%
    17:00 +13°C° 1.3 mm 2 mps 713 mmHg 90%
    18:00 +13°C° 0.3 mm 2 mps 713 mmHg 94%
    19:00 +12°C° 0.3 mm 0 mps 713 mmHg 94%
    20:00 +12°C° 0 mm 0 mps 713 mmHg 97%
    21:00 +12°C° 0 mm 1 mps 713 mmHg 98%
    22:00 +12°C° 0 mm 1 mps 713 mmHg 96%
    23:00 +12°C° 0 mm 1 mps 713 mmHg 96%

    Tomorrow, 4 June, Thursday

    Time Temperature Precipitation Wind Pressure Humidity
    00:00 +12°C° 0 mm 1 mps 713 mmHg 94%
    01:00 +12°C° 0 mm 1 mps 713 mmHg 93%
    02:00 +12°C° 0 mm 1 mps 713 mmHg 92%
    03:00 +10°C° 0 mm 2 mps 713 mmHg 94%
    04:00 +9°C° 0 mm 2 mps 712 mmHg 95%
    05:00 +9°C° 0 mm 3 mps 712 mmHg 95%
    06:00 +10°C° 0 mm 2 mps 712 mmHg 94%
    07:00 +12°C° 0 mm 3 mps 713 mmHg 91%
    08:00 +13°C° 0 mm 3 mps 713 mmHg 86%
    09:00 +14°C° 0 mm 4 mps 714 mmHg 82%
    10:00 +15°C° 0 mm 4 mps 714 mmHg 80%
    11:00 +16°C° 0 mm 5 mps 714 mmHg 80%
    12:00 +17°C° 0 mm 5 mps 714 mmHg 77%
    13:00 +17°C° 0 mm 6 mps 714 mmHg 77%
    14:00 +17°C° 0 mm 5 mps 713 mmHg 79%
    15:00 +19°C° 0 mm 5 mps 713 mmHg 75%
    16:00 +19°C° 0 mm 5 mps 713 mmHg 76%
    17:00 +19°C° 0 mm 4 mps 713 mmHg 76%
    18:00 +19°C° 0 mm 3 mps 713 mmHg 79%
    19:00 +19°C° 0 mm 2 mps 712 mmHg 84%
    20:00 +18°C° 0 mm 2 mps 712 mmHg 83%
    21:00 +17°C° 0 mm 2 mps 712 mmHg 86%
    22:00 +17°C° 0 mm 3 mps 711 mmHg 91%
    23:00 +17°C° 0 mm 2 mps 711 mmHg 93%

    Day after tomorrow, 5 June, Friday

    Time Temperature Precipitation Wind Pressure Humidity
    00:00 +16°C° 0 mm 2 mps 711 mmHg 94%
    01:00 +17°C° 0 mm 4 mps 711 mmHg 93%
    02:00 +16°C° 0 mm 6 mps 711 mmHg 93%
    03:00 +16°C° 0 mm 5 mps 711 mmHg 94%
    04:00 +16°C° 0 mm 5 mps 711 mmHg 92%
    05:00 +16°C° 0 mm 5 mps 711 mmHg 92%
    06:00 +17°C° 0 mm 4 mps 711 mmHg 90%
    07:00 +16°C° 0 mm 5 mps 712 mmHg 90%
    08:00 +17°C° 0 mm 4 mps 712 mmHg 89%
    09:00 +18°C° 0 mm 4 mps 712 mmHg 88%
    10:00 +17°C° 0 mm 6 mps 713 mmHg 87%
    11:00 +19°C° 0 mm 6 mps 713 mmHg 86%
    12:00 +20°C° 0 mm 6 mps 713 mmHg 83%
    13:00 +21°C° 0 mm 6 mps 713 mmHg 82%
    14:00 +22°C° 0 mm 8 mps 712 mmHg 79%
    15:00 +22°C° 0 mm 6 mps 712 mmHg 79%
    16:00 +22°C° 0 mm 7 mps 711 mmHg 79%
    17:00 +21°C° 0 mm 7 mps 711 mmHg 79%
    18:00 +21°C° 0 mm 7 mps 711 mmHg 80%
    19:00 +20°C° 0 mm 7 mps 711 mmHg 81%
    20:00 +20°C° 0 mm 7 mps 711 mmHg 82%
    21:00 +19°C° 0 mm 9 mps 712 mmHg 81%
    22:00 +18°C° 0 mm 8 mps 712 mmHg 89%
    23:00 +17°C° 0.5 mm 6 mps 712 mmHg 89%

    6 June, Saturday

    Time Temperature Precipitation Wind Pressure Humidity
    00:00 +17°C° 0.1 mm 6 mps 713 mmHg 89%
    01:00 +17°C° 0 mm 6 mps 712 mmHg 91%
    02:00 +17°C° 0 mm 7 mps 713 mmHg 91%
    03:00 +17°C° 0 mm 5 mps 713 mmHg 92%
    04:00 +17°C° 0.2 mm 3 mps 714 mmHg 99%
    05:00 +14°C° 1.4 mm 4 mps 715 mmHg 100%
    06:00 +15°C° 2.1 mm 1 mps 716 mmHg 100%
    07:00 +14°C° 1.1 mm 1 mps 717 mmHg 100%
    08:00 +14°C° 0.7 mm 0 mps 717 mmHg 100%
    09:00 +16°C° 0 mm 0 mps 718 mmHg 97%
    10:00 +17°C° 0 mm 0 mps 719 mmHg 96%
    11:00 +21°C° 0 mm 1 mps 719 mmHg 91%
    12:00 +21°C° 0 mm 3 mps 720 mmHg 83%
    13:00 +23°C° 0 mm 2 mps 720 mmHg 77%
    14:00 +24°C° 0 mm 2 mps 719 mmHg 72%
    15:00 +24°C° 0 mm 3 mps 720 mmHg 72%
    16:00 +24°C° 0 mm 3 mps 719 mmHg 73%
    17:00 +23°C° 0 mm 2 mps 720 mmHg 80%
    18:00 +21°C° 0.6 mm 3 mps 720 mmHg 89%
    19:00 +21°C° 0.1 mm 3 mps 720 mmHg 88%
    20:00 +20°C° 0 mm 2 mps 720 mmHg 93%
    21:00 +20°C° 0 mm 1 mps 720 mmHg 92%
    22:00 +19°C° 0 mm 2 mps 720 mmHg 94%
    23:00 +20°C° 0 mm 1 mps 720 mmHg 92%

    7 June, Sunday

    Time Temperature Precipitation Wind Pressure Humidity
    00:00 +20°C° 0 mm 1 mps 720 mmHg 90%
    01:00 +19°C° 0 mm 1 mps 719 mmHg 93%
    02:00 +19°C° 0 mm 1 mps 719 mmHg 95%
    03:00 +18°C° 0 mm 1 mps 719 mmHg 94%
    04:00 +18°C° 0 mm 1 mps 719 mmHg 92%
    05:00 +18°C° 0 mm 1 mps 719 mmHg 96%
    06:00 +18°C° 0 mm 1 mps 719 mmHg 100%
    07:00 +19°C° 0 mm 1 mps 719 mmHg 99%
    08:00 +19°C° 0 mm 2 mps 719 mmHg 99%
    09:00 +20°C° 0 mm 2 mps 719 mmHg 97%
    10:00 +22°C° 0.1 mm 1 mps 720 mmHg 93%
    11:00 +23°C° 0.1 mm 1 mps 719 mmHg 90%
    12:00 +23°C° 1.4 mm 2 mps 719 mmHg 87%
    13:00 +24°C° 0 mm 2 mps 719 mmHg 79%
    14:00 +25°C° 0 mm 2 mps 719 mmHg 76%
    15:00 +25°C° 0 mm 2 mps 718 mmHg 76%
    16:00 +25°C° 0 mm 4 mps 718 mmHg 78%
    17:00 +24°C° 0.1 mm 3 mps 718 mmHg 78%
    18:00 +23°C° 0 mm 2 mps 718 mmHg 86%
    19:00 +22°C° 0 mm 3 mps 718 mmHg 86%
    20:00 +21°C° 0 mm 3 mps 718 mmHg 85%
    21:00 +20°C° 0 mm 3 mps 717 mmHg 88%
    22:00 +19°C° 0 mm 3 mps 718 mmHg 89%
    23:00 +18°C° 0 mm 3 mps 718 mmHg 90%

    8 June, Monday

    Time Temperature Precipitation Wind Pressure Humidity
    00:00 +18°C° 0 mm 4 mps 718 mmHg 90%
    01:00 +18°C° 0 mm 4 mps 718 mmHg 91%
    02:00 +18°C° 0 mm 3 mps 718 mmHg 90%
    03:00 +18°C° 0 mm 1 mps 718 mmHg 88%
    04:00 +16°C° 0 mm 2 mps 718 mmHg 91%
    05:00 +16°C° 0 mm 2 mps 719 mmHg 91%
    06:00 +16°C° 0 mm 2 mps 718 mmHg 95%
    07:00 +19°C° 0 mm 1 mps 719 mmHg 95%
    08:00 +19°C° 0 mm 2 mps 720 mmHg 88%
    09:00 +21°C° 0 mm 2 mps 720 mmHg 83%
    10:00 +23°C° 0 mm 2 mps 721 mmHg 80%
    11:00 +24°C° 0 mm 2 mps 720 mmHg 77%
    12:00 +23°C° 0 mm 4 mps 720 mmHg 84%
    13:00 +25°C° 0 mm 5 mps 720 mmHg 78%
    14:00 +21°C° 0.3 mm 3 mps 720 mmHg 91%
    15:00 +24°C° 0 mm 2 mps 719 mmHg 86%
    16:00 +21°C° 0.7 mm 7 mps 719 mmHg 89%
    17:00 +19°C° 2.8 mm 4 mps 719 mmHg 90%
    18:00 +21°C° 0 mm 2 mps 719 mmHg 85%
    19:00 +19°C° 0 mm 5 mps 719 mmHg 94%
    20:00 +19°C° 0 mm 2 mps 719 mmHg 92%
    21:00 +19°C° 0 mm 1 mps 719 mmHg 89%
    22:00 +19°C° 0 mm 1 mps 719 mmHg 88%
    23:00 +17°C° 0 mm 2 mps 719 mmHg 99%
    Show more